[[{"header":{"parameterUnit":"m.s-1","parameterCategory":1,"la1":30.2991,"la2":30.254,"lo1":-89.0895,"lo2":-89.0444,"dy":0.0017,"dx":0.0017,"nx":28,"ny":28,"refTime":"2024-05-17T03:00:00:Z","depth":0,"parameterNumber":2,"parameterNumberName":"U-component_of_WINDS"},"data":[0,0,0,0,0,0,0,0,0,0,0,0,0,0,0,0,0,0,0,0,0,0,0,0,0,0,0,0,0,0,0,0,0,0,0,0,0,0,0,0,0,0,0,0,0,0,0,0,0,0,0,0,0,0,0,0,0,0,-5.8798,-5.8797,0,-5.87,-5.8699,-5.8698,-5.8584,-5.8582,-5.858,-5.8579,-5.8475,-5.8474,-5.8473,0,0,0,0,0,0,0,0,0,0,0,0,0,-5.888,-5.8879,-5.8798,-5.8797,-5.8796,-5.87,-5.8699,-5.8697,-5.8584,-5.8582,-5.858,-5.8578,-5.8475,-5.8474,-5.8473,0,0,0,0,0,0,0,0,0,0,0,0,0,-5.882,-5.8879,-5.8798,-5.8727,-5.872,-5.87,-5.8699,-5.8697,-5.8584,-5.8582,-5.8579,-5.8577,-5.8476,-5.8474,-5.8472,-5.8513,0,0,-5.8467,-5.8466,0,0,0,0,0,0,0,0,-5.8823,-5.8817,-5.8739,-5.8732,-5.8724,-5.8651,-5.869,-5.8635,-5.8585,-5.8636,-5.8578,-5.8576,-5.8536,-5.8529,-5.8516,-5.8509,-5.8504,-5.8467,-5.8466,-5.8465,-5.8465,0,0,0,0,0,0,0,-5.8828,-5.882,-5.8759,-5.8738,-5.8729,-5.8698,-5.8687,-5.8679,-5.8601,-5.8631,-5.8623,-5.8613,-5.8531,-5.8518,-5.8513,-5.8503,-5.8467,-5.8465,-5.8464,-5.8464,-5.8516,-5.8518,0,0,0,0,0,0,-5.8843,-5.8825,-5.8762,-5.8756,-5.8768,-5.8699,-5.8686,-5.8677,-5.8601,-5.8587,-5.8615,-5.8608,-5.8522,-5.8515,-5.8509,-5.8546,-5.8465,-5.8464,-5.8463,-5.8513,-5.8516,-5.8519,0,0,0,0,0,0,-5.8845,-5.8839,-5.8766,-5.8788,-5.8776,-5.87,-5.8691,-5.8677,-5.8663,-5.8589,-5.8574,-5.8616,-5.852,-5.8511,-5.8512,-5.8541,-5.8463,-5.8461,-5.8511,-5.8514,-5.8518,-5.8625,0,0,0,0,0,0,-5.8848,-5.884,-5.8857,-5.8789,-5.8776,-5.8773,-5.8693,-5.8677,-5.8661,-5.8651,-5.8586,-5.8573,-5.8517,-5.8515,-5.851,-5.8537,-5.846,-5.8508,-5.8512,-5.8517,-5.8619,-5.8632,-5.8644,0,0,0,0,0,-5.8852,-5.8892,-5.8858,-5.8851,-5.8795,-5.8775,-5.8767,-5.8703,-5.8664,-5.8678,-5.863,-5.8575,-5.8539,-5.8516,-5.8509,-5.8537,-5.8505,-5.8511,-5.8516,-5.8613,-5.8629,-5.8643,0,0,0,0,0,0,-5.8965,-5.8882,-5.8844,-5.8864,-5.8827,-5.8756,-5.8773,-5.8724,-5.8697,-5.8688,-5.8609,-5.8595,-5.8603,-5.857,-5.8546,-5.8568,-5.8514,-5.8518,-5.859,-5.8605,-5.8617,-5.8623,-5.8458,0,0,0,0,0,-5.8992,-5.8985,-5.8912,-5.8936,-5.892,-5.885,-5.8839,-5.8792,-5.8751,-5.8735,-5.8686,-5.8647,-5.8626,-5.8614,-5.8591,-5.8614,-5.8595,-5.8629,-5.8642,-5.8652,-5.8656,-5.8659,-5.8671,-5.8537,-5.8537,-5.8537,0,0,-5.9048,-5.9002,-5.9002,-5.8958,-5.8924,-5.8915,-5.8838,-5.8833,-5.8824,-5.8734,-5.873,-5.8693,-5.8643,-5.8653,-5.8656,-5.8626,-5.8689,-5.8659,-5.8668,-5.8666,-5.8665,-5.8678,-5.869,-5.8541,-5.854,-5.8539,0,0,-5.9145,-5.9111,-5.9125,-5.9093,-5.9043,-5.8995,-5.8999,-5.8934,-5.8905,-5.8901,-5.8831,-5.8819,-5.8786,-5.8752,-5.873,-5.8809,-5.8755,-5.8804,-5.8868,-5.8872,-5.8882,-5.8891,-5.8914,-5.8924,-5.8809,-5.8809,-5.8809,0,-5.922,-5.9206,-5.9138,-5.9136,-5.9117,-5.9035,-5.9045,-5.9017,-5.8962,-5.8949,-5.8917,-5.887,-5.8832,-5.8829,-5.8848,-5.8836,-5.8833,-5.881,-5.8887,-5.8895,-5.8902,-5.8923,-5.8932,-5.8815,-5.8814,-5.8814,-5.8813,0,-5.9298,-5.9289,-5.9306,-5.9254,-5.9237,-5.9242,-5.9172,-5.9162,-5.9116,-5.9071,-5.9064,-5.9014,-5.8977,-5.8973,-5.893,-5.8963,-5.8946,-5.8902,-5.8845,-5.8922,-5.894,-5.8948,-5.8823,-5.8821,-5.8819,-5.8818,0,0,-5.9463,-5.9372,-5.9379,-5.9352,-5.929,-5.928,-5.9279,-5.9243,-5.9233,-5.9198,-5.9191,-5.9164,-5.9121,-5.9096,-5.9047,-5.9051,-5.9109,-5.9005,-5.9002,-5.9022,-5.9136,-5.9167,-5.9178,-5.9075,-5.9076,-5.9077,-5.9139,0,-5.9545,-5.954,-5.9478,-5.9489,-5.9476,-5.9396,-5.9395,-5.9354,-5.9311,-5.9292,-5.9243,-5.9223,-5.9171,-5.9154,-5.9155,-5.9103,-5.9131,-5.9098,-5.9063,-5.9063,-5.9075,-5.9188,-5.9222,-5.9283,-5.9146,-5.9147,-5.9148,0,-5.964,-5.9609,-5.9619,-5.9552,-5.9544,-5.9544,-5.9503,-5.9488,-5.9438,-5.9406,-5.9377,-5.932,-5.931,-5.9258,-5.924,-5.9219,-5.9201,-5.9172,-5.9173,-5.9164,-5.9108,-5.9178,-5.9301,-5.9309,-5.9159,-5.9158,-5.9158,0,-5.9753,-5.9714,-5.9714,-5.9694,-5.9617,-5.9618,-5.9585,-5.9533,-5.9514,-5.9477,-5.9463,-5.9426,-5.9405,-5.9375,-5.9308,-5.9278,-5.9295,-5.924,-5.9264,-5.9265,-5.9269,-5.9269,-5.9387,-5.9265,-5.9265,-5.9265,-5.9264,0,-5.9849,-5.9857,-5.9763,-5.9762,-5.9767,-5.9694,-5.97,-5.9659,-5.9613,-5.96,-5.9529,-5.9518,-5.9432,-5.941,-5.9357,-5.9346,-5.9339,-5.9309,-5.9294,-5.9313,-5.9316,-5.9297,-5.929,-5.9267,-5.9266,-5.9266,-5.9266,0,-5.9975,-5.9913,-5.9906,-5.9833,-5.9815,-5.9821,-5.9757,-5.9751,-5.9703,-5.9687,-5.9679,-5.9602,-5.9571,-5.9502,-5.9454,-5.9418,-5.9418,-5.9395,-5.9435,-5.9425,-5.9451,-5.9448,-5.9558,-5.9566,-5.9444,-5.9445,-5.9446,0,-6.0038,-6.0042,-5.9969,-5.9956,-5.9927,-5.9907,-5.9886,-5.9813,-5.9794,-5.9735,-5.9735,-5.9699,-5.9666,-5.962,-5.9557,-5.9518,-5.9489,-5.9531,-5.9483,-5.95,-5.9484,-5.9483,-5.948,-5.954,-5.9542,-5.9544,-5.9545,0,-6.0155,-6.0124,-6.0098,-6.0061,-6.0038,-6.0005,-5.9967,-5.996,-5.9877,-5.9858,-5.9826,-5.9801,-5.9749,-5.9712,-5.9662,-5.9624,-5.9568,-5.956,-5.9563,-5.958,-5.9602,-5.9585,-5.9459,-5.9558,-5.9556,-5.9555,-5.9555,-5.9554,-6.0248,-6.0246,-6.0194,-6.0166,-6.013,-6.0096,-6.0085,-6.0035,-6.0008,-5.9962,-5.9919,-5.989,-5.9834,-5.9762,-5.9727,-5.97,-5.9673,-5.9678,-5.9678,-5.968,-5.9686,-5.9609,-5.9691,-5.9691,-5.969,-5.969,-5.9689,0,-6.0357,-6.0319,-6.0295,-6.0244,-6.0221,-6.0174,-6.0128,-6.0111,-6.0087,-6.0041,-6.0009,-5.997,-5.9932,-5.9866,-5.9821,-5.9812,-5.9785,-5.9802,-5.98,-5.9791,-5.9715,-5.9715,-5.9824,-5.9824,-5.9824,-5.9824,-5.9824,-5.9824,-6.0411,-6.0404,-6.0365,-6.0337,-6.0298,-6.027,-6.0248,-6.0213,-6.0176,-6.0135,-6.0104,-6.0062,-6.0006,-5.9956,-5.9917,-5.9898,-5.9883,-5.9908,-5.988,-5.981,-5.9797,-5.9785,-5.9784,-5.9906,-5.9906,-5.9957,-5.9958,-5.9958]},{"header":{"parameterUnit":"m.s-1","parameterCategory":1,"la1":30.2991,"la2":30.254,"lo1":-89.0895,"lo2":-89.0444,"dy":0.0017,"dx":0.0017,"nx":28,"ny":28,"refTime":"2024-05-17T03:00:00:Z","depth":0,"parameterNumber":3,"parameterNumberName":"V-component_of_WINDS"},"data":[0,0,0,0,0,0,0,0,0,0,0,0,0,0,0,0,0,0,0,0,0,0,0,0,0,0,0,0,0,0,0,0,0,0,0,0,0,0,0,0,0,0,0,0,0,0,0,0,0,0,0,0,0,0,0,0,0,0,-2.4293,-2.4295,0,-2.4445,-2.4447,-2.4449,-2.437,-2.4366,-2.4362,-2.4358,-2.4521,-2.4529,-2.4537,0,0,0,0,0,0,0,0,0,0,0,0,0,-2.3941,-2.3947,-2.4293,-2.4295,-2.4297,-2.4445,-2.4447,-2.4449,-2.4371,-2.4366,-2.4361,-2.4357,-2.4519,-2.4528,-2.4538,0,0,0,0,0,0,0,0,0,0,0,0,0,-2.4094,-2.395,-2.4293,-2.4276,-2.4275,-2.4444,-2.4447,-2.445,-2.4372,-2.4366,-2.436,-2.4354,-2.4515,-2.4527,-2.4539,-2.4736,0,0,-2.4576,-2.4582,0,0,0,0,0,0,0,0,-2.4085,-2.4107,-2.4276,-2.4277,-2.4277,-2.4382,-2.4382,-2.4546,-2.4374,-2.4336,-2.4358,-2.4351,-2.448,-2.4495,-2.4537,-2.4744,-2.4751,-2.4578,-2.4585,-2.459,-2.4594,0,0,0,0,0,0,0,-2.4074,-2.41,-2.4353,-2.4279,-2.4279,-2.4262,-2.4277,-2.4413,-2.4441,-2.4339,-2.4333,-2.4352,-2.448,-2.4526,-2.454,-2.4753,-2.4577,-2.4588,-2.4595,-2.46,-2.5127,-2.5133,0,0,0,0,0,0,-2.4064,-2.4091,-2.4348,-2.4358,-2.4164,-2.4273,-2.429,-2.4355,-2.4439,-2.4446,-2.4357,-2.4348,-2.4508,-2.4526,-2.4546,-2.478,-2.459,-2.4601,-2.4608,-2.512,-2.5129,-2.5136,0,0,0,0,0,0,-2.4057,-2.4088,-2.4342,-2.4223,-2.4254,-2.4286,-2.4359,-2.4361,-2.4407,-2.4453,-2.4458,-2.4398,-2.4504,-2.4529,-2.4688,-2.4785,-2.4607,-2.4618,-2.5113,-2.5123,-2.5132,-2.5252,0,0,0,0,0,0,-2.4047,-2.4085,-2.4159,-2.4225,-2.4261,-2.4481,-2.4365,-2.4368,-2.4427,-2.4417,-2.4493,-2.45,-2.4501,-2.4671,-2.4701,-2.4798,-2.4627,-2.5104,-2.5117,-2.5129,-2.5239,-2.5264,-2.5286,0,0,0,0,0,-2.4034,-2.4189,-2.4163,-2.4195,-2.4353,-2.4487,-2.4507,-2.4503,-2.4435,-2.451,-2.454,-2.4497,-2.477,-2.4688,-2.4721,-2.4824,-2.5098,-2.5113,-2.5128,-2.5229,-2.5259,-2.5286,0,0,0,0,0,0,-2.4135,-2.4197,-2.417,-2.4349,-2.4413,-2.4473,-2.4568,-2.4536,-2.4623,-2.4609,-2.4603,-2.4621,-2.4787,-2.4821,-2.4729,-2.5018,-2.4924,-2.4946,-2.4989,-2.5018,-2.5041,-2.5029,-2.4638,0,0,0,0,0,-2.4178,-2.4279,-2.4328,-2.4482,-2.4515,-2.4536,-2.4594,-2.4585,-2.4652,-2.468,-2.472,-2.4789,-2.4889,-2.4956,-2.5051,-2.5244,-2.5259,-2.5331,-2.5355,-2.5374,-2.5393,-2.5496,-2.5528,-2.5185,-2.5185,-2.5185,0,0,-2.4268,-2.4314,-2.4379,-2.4504,-2.4552,-2.4658,-2.456,-2.4677,-2.4756,-2.4698,-2.485,-2.4883,-2.4959,-2.5135,-2.5215,-2.5169,-2.5491,-2.5393,-2.5408,-2.5417,-2.5515,-2.5548,-2.5576,-2.5195,-2.5194,-2.5192,0,0,-2.4486,-2.4532,-2.4664,-2.4714,-2.4787,-2.48,-2.4832,-2.4897,-2.4915,-2.5067,-2.5026,-2.5121,-2.5295,-2.535,-2.5401,-2.5639,-2.5603,-2.5671,-2.5793,-2.5894,-2.5921,-2.5945,-2.6029,-2.6059,-2.569,-2.569,-2.569,0,-2.459,-2.4746,-2.4736,-2.4856,-2.4912,-2.4862,-2.4997,-2.5047,-2.5149,-2.5189,-2.5136,-2.5352,-2.54,-2.5588,-2.5645,-2.5689,-2.5725,-2.5662,-2.5917,-2.5941,-2.5964,-2.6044,-2.6075,-2.5698,-2.5697,-2.5696,-2.5695,0,-2.4869,-2.4978,-2.5076,-2.5173,-2.524,-2.5367,-2.5378,-2.5448,-2.5434,-2.5452,-2.5608,-2.5663,-2.5768,-2.5812,-2.5801,-2.5999,-2.5968,-2.5917,-2.5822,-2.6004,-2.6079,-2.611,-2.5709,-2.5706,-2.5704,-2.5702,0,0,-2.5154,-2.5243,-2.5279,-2.5322,-2.5399,-2.5484,-2.5609,-2.5709,-2.5769,-2.5842,-2.5946,-2.6094,-2.6046,-2.6104,-2.6098,-2.6186,-2.637,-2.6124,-2.6126,-2.6167,-2.6591,-2.6628,-2.6664,-2.6347,-2.6353,-2.6357,-2.6584,0,-2.5376,-2.5592,-2.5587,-2.5788,-2.5888,-2.5843,-2.5951,-2.6011,-2.6032,-2.6122,-2.6146,-2.625,-2.618,-2.6214,-2.63,-2.6329,-2.6455,-2.6313,-2.6445,-2.645,-2.6426,-2.6703,-2.6743,-2.6954,-2.6613,-2.6618,-2.6622,0,-2.5664,-2.5743,-2.5953,-2.6014,-2.6056,-2.6154,-2.6244,-2.6331,-2.6398,-2.6407,-2.6471,-2.6451,-2.6579,-2.6481,-2.6657,-2.6561,-2.6615,-2.6637,-2.6645,-2.6657,-2.6546,-2.6721,-2.7022,-2.7053,-2.6668,-2.6665,-2.6661,0,-2.585,-2.6009,-2.6155,-2.6193,-2.6269,-2.6338,-2.6373,-2.6434,-2.6494,-2.6575,-2.6613,-2.6709,-2.6761,-2.6836,-2.6842,-2.677,-2.702,-2.6922,-2.7031,-2.7031,-2.7085,-2.7082,-2.7398,-2.7122,-2.7122,-2.7121,-2.7121,0,-2.6097,-2.6228,-2.6239,-2.6329,-2.6473,-2.6467,-2.6611,-2.664,-2.6695,-2.679,-2.6758,-2.6848,-2.6852,-2.6945,-2.6952,-2.7096,-2.7121,-2.7132,-2.7132,-2.7134,-2.7133,-2.7169,-2.7154,-2.713,-2.7128,-2.7126,-2.7125,0,-2.6329,-2.6341,-2.6497,-2.6555,-2.6573,-2.6677,-2.6727,-2.6813,-2.6831,-2.6952,-2.698,-2.7009,-2.7116,-2.713,-2.7258,-2.7262,-2.7435,-2.742,-2.7411,-2.7409,-2.7516,-2.7506,-2.7866,-2.7913,-2.7608,-2.7611,-2.7613,0,-2.6485,-2.6584,-2.6652,-2.6712,-2.675,-2.6849,-2.6909,-2.6907,-2.6972,-2.7055,-2.7132,-2.7236,-2.7319,-2.7494,-2.7527,-2.7624,-2.761,-2.773,-2.7625,-2.7624,-2.7611,-2.7604,-2.7614,-2.775,-2.7753,-2.7756,-2.7758,0,-2.6762,-2.6763,-2.685,-2.694,-2.7012,-2.7083,-2.715,-2.7202,-2.7209,-2.7284,-2.7392,-2.7456,-2.7584,-2.7689,-2.7784,-2.7821,-2.7792,-2.7791,-2.7821,-2.7824,-2.7814,-2.782,-2.7465,-2.7783,-2.778,-2.7779,-2.7777,-2.7776,-2.696,-2.7045,-2.7105,-2.7203,-2.7253,-2.7316,-2.7399,-2.7426,-2.7516,-2.7618,-2.7612,-2.7732,-2.7797,-2.7921,-2.7966,-2.806,-2.8021,-2.8065,-2.8076,-2.8087,-2.8096,-2.78,-2.8078,-2.8077,-2.8077,-2.8076,-2.8075,0,-2.7233,-2.7269,-2.736,-2.7453,-2.753,-2.7493,-2.7565,-2.7633,-2.7738,-2.78,-2.7881,-2.8006,-2.8106,-2.8147,-2.8245,-2.8313,-2.8302,-2.8339,-2.8334,-2.8343,-2.8127,-2.809,-2.8346,-2.8346,-2.8346,-2.8346,-2.8346,-2.8346,-2.7384,-2.7525,-2.7534,-2.7699,-2.7735,-2.785,-2.7894,-2.7953,-2.8002,-2.8141,-2.8224,-2.8249,-2.8302,-2.8404,-2.8495,-2.8504,-2.8541,-2.8584,-2.8588,-2.8385,-2.8358,-2.8332,-2.8297,-2.8593,-2.8593,-2.8796,-2.8798,-2.8799]}]]